Regional Weather Roundup
Issued by NWS State College, PA

Home | Current Version | Previous Version | Text Only | Print | Product List | Glossary On
Versions: 1 2 3 4 5 6 7 8 9 10 11 12 13 14 15 16 17 18 19 20 21 22 23 24 25 26 27 28 29 30 31 32 33 34 35 36 37 38 39 40 41 42 43 44 45 46 47 48 49 50
000
ASUS41 KCTP 070510
RWRCTP

REGIONAL WEATHER ROUNDUP
NATIONAL WEATHER SERVICE STATE COLLEGE PA
1200 AM EST SUN FEB 07 2016

Note: "fair" indicates few or no clouds below 12,000 feet with no
significant weather and/or obstructions to visibility.

* = STATION THAT DOES NOT REPORT PRECIPITATION /E.G. RAIN...SNOW...ETC/
    THUNDER OR FOG.

PAZ002>004-007>009-013>016-020>023-029>032-070600-
WESTERN PENNSYLVANIA

CITY           SKY/WX    TMP DP  RH WIND       PRES   REMARKS
ERIE           MOCLDY    31  20  63 SW7       30.17F
MEADVILLE      PTCLDY    30  16  56 S7        30.14F
FRANKLIN*      CLEAR     28  14  54 SW6       30.17F
NEW CASTLE     FAIR      28  17  63 SW3       30.19F
BEAVER COUNTY  NOT AVBL
BUTLER*        CLEAR     28  12  50 SW3       30.21F
PITTSBURGH INT CLEAR     29  13  51 CALM      30.18F
PITTSBURGH     CLEAR     34  13  41 S6        30.18F
INDIANA*       CLEAR     28  19  69 CALM      30.21F
LATROBE        CLEAR     27  16  63 CALM      30.20F
WASHINGTON CO* CLEAR     21  16  79 CALM      30.19F
$$

PAZ004>006-010>012-017>019-024>028-033>037-041-042-045-046-049>053-070600-
CENTRAL PENNSYLVANIA

CITY           SKY/WX    TMP DP  RH WIND       PRES   REMARKS
BRADFORD       CLEAR     29  14  53 SW3       30.11F
DUBOIS         CLEAR     28  14  55 SW3       30.14S
CLEARFIELD     CLEAR     27  18  69 SW3       30.17S
JOHNSTOWN      CLEAR     29  12  49 W7        30.13F
ALTOONA        CLEAR     32  17  54 SW8       30.18F
STATE COLLEGE  CLEAR     28  18  67 CALM      30.18F
WILLIAMSPORT   CLEAR     27  20  75 CALM      30.21F
SELINSGROVE    CLEAR     29  20  69 CALM      30.23F
FT INDIANTOWN  CLEAR     24  24  99 CALM      30.24F
CAPITAL CITY   CLEAR     28  19  69 CALM      30.24F
HARRISBURG     CLEAR     28  18  66 E5        30.24F
YORK           CLEAR     22  18  85 CALM      30.23F
$$

PAZ038>040-043-044-047-048-054-055-060>062-067>071-070600-
EASTERN PENNSYLVANIA

CITY           SKY/WX    TMP DP  RH WIND       PRES   REMARKS
SCRANTON       CLEAR     29  18  63 CALM      30.19F
MOUNT POCONO   CLEAR     26  16  65 NW3       30.16F
ALLENTOWN      CLEAR     31  19  61 CALM      30.24F
QUAKERTOWN*    PTCLDY    25  21  86 CALM      30.25F
READING        CLEAR     30  21  69 CALM      30.24F
LANCASTER      CLEAR     26  21  81 CALM      30.25F
COATESVILLE    CLOUDY    32  25  74 CALM      30.25F
POTTSTOWN      PTCLDY    26  20  77 CALM      30.26F
BLUE BELL        N/A     27  25  93 CALM      30.25F
DOYLESTOWN     CLOUDY    28  22  78 CALM      30.24F
WILLOW GROVE   NOT AVBL
NORTH PHILA    CLEAR     32  25  75 CALM      30.29F
PHILADELPHIA   MOCLDY    34  27  75 S3        30.28F
$$



USA.gov is the U.S. government's official web portal to all federal, state and local government web resources and services.